{"data":{"norad_id":45439,"intl_designator":"2020-020R","name":"ONEWEB-0096","alt_names":[],"object_type":"PAYLOAD","status":"ACTIVE","operator":null,"country":"UK","launch_date":"2020-03-21","launch_site_code":"TYMSC","launch_vehicle":null,"mission":null,"orbit_class":"UNKNOWN","rcs_meters":null,"size_class":null,"mass_kg":null,"dimensions":null,"purposes":["comms"],"wikipedia_slug":null,"has_3d_model":false,"image_url":null,"decayed_at":null,"tle_current":{"epoch":"2026-05-25T02:11:46.798368Z","epoch_age_seconds":70425,"freshness":"FRESH","line1":"1 45439U 20020R   26145.09151387 -.00000281  00000+0 -82831-3 0  9998","line2":"2 45439  87.8921  25.6560 0001872  81.6291 278.5049 13.11418335299635","mean_motion":13.11418335,"eccentricity":0.0001872,"inclination_deg":87.8921,"raan_deg":25.656,"arg_perigee_deg":81.6291,"mean_anomaly_deg":278.5049,"bstar":-0.00082831,"rev_number":29963,"period_min":109.80477865593,"perigee_km":1216.2553946168,"apogee_km":1219.0992675024,"semimajor_km":7595.8143310596,"source":"CELESTRAK","updated_at":"2026-05-25T13:38:22.344007Z"}}}